ウィルタネン彗星

46P/Wirtanen (2018)

English version
Home page
Updated on October 22, 2018

---------------------------------------------------------------------

・ プロフィール

・ 写真集

・ 軌道要素

Epoch 2018 Dec. 28.0 TT = JDT 2458480.5
T 2018 Dec. 12.94112 TT                                 MPCW
q   1.0553572            (2000.0)            P               Q
n   0.18118601     Peri.  356.35157     +0.19785698     -0.95926013
a   3.0930453      Node    82.15959     +0.90441872     +0.09931137
e   0.6587967      Incl.   11.74625     +0.37799390     +0.26449434
P   5.44
From 1504 observations 2007 Aug. 6-2018 Sept. 3, mean residual 0".8.
     Nongravitational parameters A1 = +0.36, A2 = -0.1616.

・ 星図

・ 光度変化

        m1 = 14.5 + 5 logΔ +  8.0 log r          [    ,-150]  (              〜2018年 7月15日)
        m1 =  8.0 + 5 logΔ + 27.0 log r(t - 12)  [-150, 180]  (2018年 7月15日〜2019年 6月10日)
        m1 = 14.5 + 5 logΔ +  8.0 log r          [ 180,    ]  (2019年 6月10日〜              )

---------------------------------------------------------------------

軌道要素はM.P.E.C. 2018-R14に掲載されたものです。
星図はステラナビゲータ Ver.8 (アストロアーツ) で作成したものです。
光度グラフはComet for Windowsで作成したものです。

---------------------------------------------------------------------

Copyright(C) Seiichi Yoshida (comet@aerith.net). All rights reserved.